Terminal Aerodrome Forecast
Issued by NWS

Home | Current Version | Previous Version | Text Only | Print | Product List | Glossary Off
Versions: 1 2 3 4 5 6 7 8 9 10 11 12 13 14 15 16 17 18 19 20

000
FTUS42 KMHX 241648 AAB
TAFOAJ
TAF AMD
KOAJ 241648Z 2417/2512 01009KT 6SM -SN FEW010 OVC040
     FM242000 01006KT 2SM -FZRA BR OVC003
     FM250300 35005KT 4SM BR OVC005
     FM250900 31004KT P6SM SCT030
      AMD LTD TO CLD VIS AND WIND=

USA.gov is the U.S. government's official web portal to all federal, state and local government web resources and services.